{"data":{"norad_id":61871,"epoch":"2026-09-22T22:47:22.141248Z","epoch_age_seconds":90351,"freshness":"FRESH","line1":"1 61871U 24203C   26265.94956182  .00008373  00000+0  32482-3 0  9991","line2":"2 61871  97.4156 334.4451 0010788   8.3476 351.7940 15.26312950103774","mean_motion":15.2631295,"eccentricity":0.0010788,"inclination_deg":97.4156,"raan_deg":334.4451,"arg_perigee_deg":8.3476,"mean_anomaly_deg":351.794,"bstar":0.00032482,"rev_number":10377,"period_min":94.345003100445,"perigee_km":479.43978057519,"apogee_km":494.25166730036,"semimajor_km":6864.9827239378,"source":"CELESTRAK","updated_at":"2026-09-23T09:00:21.085092Z"}}